Regional Weather Roundup
Issued by NWS

Home | Current Version | Previous Version | Text Only | Print | Product List | Glossary On
Versions: 1 2 3 4 5 6 7 8 9 10 11 12 13 14 15 16 17 18 19 20 21 22 23 24 25 26 27 28 29 30 31 32 33 34 35 36 37 38 39 40 41 42 43 44 45 46 47 48 49 50
000
ASUS44 KOUN 011410
RWROK

WEATHER ROUNDUP FOR OKLAHOMA
NATIONAL WEATHER SERVICE NORMAN OK
900 AM CDT FRI AUG 01 2014

NOTE: "FAIR" INDICATES FEW OR NO CLOUDS BELOW 12,000 FEET WITH NO
      SIGNIFICANT WEATHER AND/OR OBSTRUCTIONS TO VISIBILITY.

OKZ001>007-009>012-014-015-017-011500-
NORTHWEST OKLAHOMA AND THE PANHANDLE

CITY           SKY/WX    TMP DP  RH WIND       PRES   REMARKS
GAGE           SUNNY     66  61  84 SW6       30.14R
ENID/WOODRING  MOSUNNY   72  72 100 CALM      30.08S
$$

OKZ016-021>023-033>039-044-045-011500-
SOUTHWEST OKLAHOMA

CITY           SKY/WX    TMP DP  RH WIND       PRES   REMARKS
LAWTON/REGL    SUNNY     71  67  87 NE5       30.10S
LAWTON/FT SILL FOG       68  68 100 N6        30.10R VSB 1
FREDERICK      MOSUNNY   71  68  90 CALM      30.09R
CLINTON        MOSUNNY   71  65  81 NW7       30.15R
HOBART         MOSUNNY   69  66  90 N6        30.13R FOG
ALTUS AFB      SUNNY     71  69  93 NW5       30.12R
$$

OKZ018>020-024>031-011500-
CENTRAL OKLAHOMA

CITY           SKY/WX    TMP DP  RH WIND       PRES   REMARKS
OKLAHOMA CITY  PTSUNNY   73  66  78 NE5       30.11R
OKC/WILEY POST MOSUNNY   70  66  88 CALM      30.11R HAZE
OKC/TINKER AFB PTSUNNY   68  66  94 VRB3      30.11R FOG
STILLWATER     FOG       67  66  97 CALM      30.10R VSB 1/4
GUTHRIE        FOG       67  66  97 CALM      30.10R VSB<1/4
$$

OKZ008-013-054>072-011500-
NORTHEAST OKLAHOMA

CITY           SKY/WX    TMP DP  RH WIND       PRES   REMARKS
TULSA          PTSUNNY   72  66  81 CALM      30.09R
TULSA/JONES    CLOUDY    71  67  87 CALM      30.10R
PONCA CITY     SUNNY     71  67  87 MISG      30.09R
BARTLESVILLE   CLOUDY    70  68  93 S3        30.11R
MUSKOGEE       CLOUDY    70  66  87 CALM      30.11R
$$

OKZ032-040>043-046>053-073>077-011500-
SOUTH CENTRAL/SOUTHEAST OKLAHOMA

CITY           SKY/WX    TMP DP  RH WIND       PRES   REMARKS
ARDMORE/DWNTWN MOSUNNY   72  63  73 NE7       30.08R
MCALESTER      CLOUDY    69  66  90 CALM      30.10R
$$




USA.gov is the U.S. government's official web portal to all federal, state and local government web resources and services.